Location: Bonn
(50.7330°N, 7.1000°E)
Time: 09:55:33
(UTC+01:00)

Iridium 67 - Visible Passes

Search period start: 27 February 2017 00:00
Search period end: 09 March 2017 00:00
Orbit: 776 x 779 km, 86.4° (Epoch: 26 February)

Date Brightness Start Highest point End Pass type
(mag) Time Alt. Az. Time Alt. Az. Time Alt. Az.
27 Feb 8.7 06:29:48 10° E 06:32:03 13° ENE 06:34:19 10° NE visible
27 Feb 6.6 20:12:03 10° NNW 20:17:02 47° W 20:22:00 10° SSW visible
28 Feb 5.7 19:38:22 10° N 19:43:36 79° W 19:48:48 10° S visible
28 Feb 8.6 21:21:13 10° NW 21:23:25 13° WNW 21:25:37 10° W visible
01 Mar 5.5 19:04:50 10° N 19:10:02 63° E 19:15:12 10° SSE visible
01 Mar 8.0 20:46:26 10° NNW 20:50:17 21° WNW 20:54:07 10° SW visible
02 Mar 8.5 06:28:33 10° ESE 06:31:55 18° ENE 06:35:17 10° NE visible
02 Mar 7.2 20:12:21 10° NNW 20:17:02 34° W 20:21:42 10° SSW visible
03 Mar 9.1 05:58:06 10° ENE 05:58:49 10° ENE 05:59:32 10° ENE visible
03 Mar 6.2 19:38:32 10° N 19:43:40 57° W 19:48:45 10° SSW visible
04 Mar 5.5 19:04:54 10° N 19:10:11 85° E 19:15:24 10° S visible
04 Mar 8.5 20:47:08 10° NW 20:50:10 16° WNW 20:53:10 10° WSW visible
05 Mar 8.3 06:27:44 10° SE 06:31:48 24° ENE 06:35:53 10° NNE visible
05 Mar 7.9 20:12:45 10° NNW 20:16:59 26° W 20:21:12 10° SW visible
06 Mar 8.7 05:55:56 10° ESE 05:58:38 14° ENE 06:01:21 10° NE visible
06 Mar 6.9 19:38:47 10° NNW 19:43:41 42° W 19:48:34 10° SSW visible
07 Mar 5.9 19:05:03 10° N 19:10:16 71° W 19:15:27 10° S visible
07 Mar 8.9 20:48:24 10° NW 20:50:00 11° WNW 20:51:35 10° W visible
08 Mar 7.8 06:27:11 10° SE 06:31:44 32° E 06:36:19 10° NNE visible
08 Mar 8.4 20:13:18 10° NNW 20:16:54 19° WNW 20:20:29 10° WSW visible
